ICE454 BIKF-EGLL

Flight info

Callsign ICE454
Flight time N/A
Altitude 35000
Route OSKUM3A OSKUM DCT RATSU/N0459F350 DCT BARKU DCT ORSUM DCT GOW DCT ELBUS DCT NAVSO DCT AKOMU DCT VAMEB DCT NUGRA
Aircraft B38M/M-SDE1FGHILORVWXY/HB1

Departure

Time 2026-05-06 15:26
Airport Keflavik International Airport (BIKF)

Arrival

Time N/A
Airport London Heathrow Airport (EGLL)
Time Latitude Longitude Altitude Speed Heading
2026-05-06 14:56 63.99277 -22.62452 143 ft 0 kts
2026-05-06 15:13 63.99254 -22.62452 149 ft 4 kts
2026-05-06 15:14 63.99227 -22.62452 148 ft 4 kts
2026-05-06 15:14 63.99202 -22.62452 145 ft 2 kts
2026-05-06 15:14 63.99181 -22.62460 145 ft 4 kts 39°
2026-05-06 15:14 63.99172 -22.62506 145 ft 3 kts 90°
2026-05-06 15:15 63.99172 -22.62480 145 ft 4 kts 90°
2026-05-06 15:15 63.99172 -22.62419 144 ft 4 kts 90°
2026-05-06 15:15 63.99172 -22.62403 144 ft 2 kts 90°
2026-05-06 15:18 63.99172 -22.62395 144 ft 2 kts 90°
2026-05-06 15:18 63.99172 -22.62306 145 ft 10 kts 90°
2026-05-06 15:19 63.99172 -22.62073 145 ft 19 kts 90°
2026-05-06 15:19 63.99174 -22.61735 149 ft 21 kts 89°
2026-05-06 15:19 63.99173 -22.61412 156 ft 19 kts 90°
2026-05-06 15:19 63.99171 -22.61182 161 ft 10 kts 109°
2026-05-06 15:20 63.99119 -22.61127 165 ft 9 kts 175°
2026-05-06 15:20 63.99038 -22.61126 166 ft 15 kts 180°
2026-05-06 15:20 63.98898 -22.61127 165 ft 24 kts 180°
2026-05-06 15:20 63.98723 -22.61126 165 ft 26 kts 178°
2026-05-06 15:21 63.98538 -22.61117 168 ft 27 kts 180°
2026-05-06 15:21 63.98340 -22.61128 161 ft 30 kts 181°
2026-05-06 15:21 63.98179 -22.61125 162 ft 14 kts 168°
2026-05-06 15:21 63.98133 -22.60985 168 ft 9 kts 125°
2026-05-06 15:22 63.98080 -22.60942 170 ft 10 kts 178°
2026-05-06 15:22 63.97982 -22.60942 171 ft 19 kts 180°
2026-05-06 15:22 63.97814 -22.60942 172 ft 29 kts 180°
2026-05-06 15:22 63.97601 -22.60942 170 ft 32 kts 180°
2026-05-06 15:23 63.97366 -22.60942 166 ft 35 kts 180°
2026-05-06 15:23 63.97108 -22.60942 157 ft 39 kts 180°
2026-05-06 15:23 63.96869 -22.60942 148 ft 25 kts 180°
2026-05-06 15:23 63.96711 -22.60942 142 ft 24 kts 180°
2026-05-06 15:24 63.96592 -22.60942 138 ft 26 kts 180°
2026-05-06 15:24 63.96479 -22.60924 138 ft 13 kts 152°
2026-05-06 15:24 63.96458 -22.60760 142 ft 10 kts 87°
2026-05-06 15:24 63.96459 -22.60631 146 ft 7 kts 89°
2026-05-06 15:25 63.96476 -22.60543 147 ft 6 kts 20°
2026-05-06 15:25 63.96509 -22.60541 148 ft 2 kts
2026-05-06 15:25 63.96510 -22.60541 148 ft 0 kts
2026-05-06 15:25 63.96590 -22.60541 151 ft 42 kts
2026-05-06 15:26 63.97146 -22.60541 167 ft 115 kts
2026-05-06 15:26 63.98114 -22.60540 465 ft 150 kts
2026-05-06 15:26 63.99172 -22.60582 1451 ft 152 kts
2026-05-06 15:26 64.00223 -22.60652 2416 ft 156 kts
2026-05-06 15:27 64.01407 -22.60622 2821 ft 187 kts
2026-05-06 15:27 64.02765 -22.60540 3603 ft 194 kts
2026-05-06 15:27 64.04138 -22.60396 4526 ft 202 kts 10°
2026-05-06 15:27 64.05532 -22.59519 5215 ft 216 kts 33°
2026-05-06 15:28 64.06459 -22.56793 5929 ft 230 kts 72°
2026-05-06 15:28 64.06580 -22.53059 6796 ft 239 kts 89°
2026-05-06 15:28 64.06476 -22.49232 7696 ft 248 kts 91°
2026-05-06 15:28 64.06399 -22.45178 8364 ft 262 kts 89°
2026-05-06 15:29 64.06111 -22.41055 9317 ft 269 kts 109°
2026-05-06 15:29 64.05198 -22.37275 10282 ft 274 kts 116°
2026-05-06 15:29 64.04252 -22.33390 10857 ft 289 kts 115°
2026-05-06 15:29 64.03248 -22.29296 11245 ft 309 kts 115°
2026-05-06 15:30 64.02159 -22.24893 11636 ft 327 kts 116°
2026-05-06 15:30 64.01010 -22.20282 12185 ft 339 kts 116°
2026-05-06 15:30 63.99837 -22.15594 13048 ft 342 kts 117°